Essaouira, Morocco

7:12 PM WET on March 25, 2017 (GMT +0000)
Mogador

Weather History for GMMI - February, 2014

Change the Weather History Date:

Monday, February 17, 2014

  Actual Average Record
Temperature  
Mean Temperature 57 °F -  
Max Temperature 61 °F 66 °F - ()
Min Temperature 53 °F 54 °F - ()
Degree Days  
Heating Degree Days 8    
Growing Degree Days 7 (Base 50)    
Moisture  
Dew Point 45 °F    
Average Humidity 59    
Maximum Humidity 68    
Minimum Humidity 45    
Precipitation  
Precipitation 0.00 in 0.05 in - ()
Sea Level Pressure  
Sea Level Pressure 29.90 in    
Wind  
Wind Speed 14 mph ()    
Max Wind Speed 29 mph    
Max Gust Speed -    
Visibility 4.1 miles    
Events      
T = Trace of Precipitation, MM = Missing Value Source: Averaged Metar Reports

Daily Weather History Graph

Daily Weather History Graph

Search for Another Location

Airport or City:

Trip Planner

Search our weather history database for the weather conditions in past years. The results will help you decide how hot, cold, wet, or windy it might be!

Date:

Astronomy

Feb. 17, 2014 Rise Set
Actual Time 7:19 AM WET 6:27 PM WET
Civil Twilight 6:54 AM WET 6:52 PM WET
Nautical Twilight 6:25 AM WET 7:20 PM WET
Astronomical Twilight 5:57 AM WET 7:49 PM WET
Moon 8:56 PM WET (2/17) 8:24 AM WET (2/17)
Length of Visible Light 11h 58m
Length of Day
11h 08m
Waning Gibbous, 94% of the Moon is Illuminated
Feb 17
Waning Gibbous
Feb 22
Last Quarter
Mar 1
New
Mar 8
First Quarter
Mar 16
Full

Hourly Weather History & Observations

Time (WET) Temp. Dew Point Humidity Pressure Visibility Wind Dir Wind Speed Gust Speed Precip Events Conditions
12:00 AM 54 °F 46 °F 66% 29.89 in - NNE 26.8 mph - -  
3:00 AM 54 °F 47 °F 68% 29.89 in - NE 29.1 mph - -  
6:00 AM 54 °F 45 °F 62% 29.89 in - NE 24.6 mph - -  
8:00 AM 53.6 °F 42.8 °F 67% 29.89 in 3.7 mi NE 11.5 mph - N/A   Mostly Cloudy
9:00 AM 54 °F 44 °F 61% 29.89 in - NE 20.1 mph - -  
9:00 AM 53.6 °F 42.8 °F 67% 29.89 in 3.7 mi NE 11.5 mph - N/A   Mostly Cloudy
10:00 AM 53.6 °F 42.8 °F 67% 29.89 in 3.7 mi ENE 11.5 mph - N/A   Overcast
11:00 AM 57.2 °F 42.8 °F 59% 29.92 in 3.7 mi ENE 11.5 mph - N/A   Mostly Cloudy
12:00 PM 60 °F 50 °F 61% 29.94 in 5 mi NNE 11.5 mph - -   Partly Cloudy
12:00 PM 60.8 °F 41.0 °F 48% 29.89 in 3.7 mi NE 16.1 mph - N/A   Mostly Cloudy
1:00 PM 60.8 °F 41.0 °F 48% 29.89 in 3.7 mi NNE 16.1 mph - N/A   Mostly Cloudy
2:00 PM 59.0 °F 42.8 °F 55% 29.89 in 3.7 mi NNE 11.5 mph - N/A   Mostly Cloudy
3:00 PM 60 °F 48 °F 55% 29.91 in 5 mi North 9.2 mph - -   Partly Cloudy
3:00 PM 60.8 °F 42.8 °F 52% 29.89 in 3.7 mi East 9.2 mph - N/A   Mostly Cloudy
4:00 PM 62.6 °F 41.0 °F 45% 29.89 in 4.3 mi NE 9.2 mph - N/A   Mostly Cloudy
5:00 PM 60.8 °F 41.0 °F 48% 29.89 in 4.3 mi NNW 11.5 mph - N/A   Mostly Cloudy
6:00 PM 59 °F 51 °F 66% 29.91 in 5 mi WNW 6.9 mph - -   Partly Cloudy
6:00 PM 59.0 °F 44.6 °F 59% 29.89 in 4.3 mi NNW 9.2 mph - N/A   Mostly Cloudy
7:00 PM 57.2 °F 46.4 °F 67% 29.89 in 3.7 mi NNW 4.6 mph - N/A   Scattered Clouds
9:00 PM 57 °F 48 °F 63% 29.89 in - NNW 8.9 mph - -